Current weather by "City, St" or "zip code"  
 
Advertise Here

Current Conditions: Everett Snohomish County, WA

Fair


53.0 F

Last Updated on May 30 2020, 12:53 am PDT
Humidity: 72%
Wind Speed: N 6.9 mph
Barometer 29.86 in
Dewpoint: 44.1 F
Visibility: 10.00 mi
Precip: --
Heat Index: NA
Wind Chill: 51 F
Current conditions at:

Everett Snohomish County, WA (KPAE)

Lat: 47.92331 Lon: 122.28305

Local Radar Image active severe weather and emergency alerts image image weather storm and storm spotter reports image weather observation monitoring service image
Local
Radar
Active
Alerts
Storm Reports Obs
Monitoring

Sign-up For Email & Text Message Weather Alert Notification Services


Advertise Here

Observation History for Everett Snohomish County, WA


Time Wind
(mph)
Vis
(mi)
Weather Precip (in) Temperature (F) Relative
Humidity
Wind
Chill
(F)
Heat
Index
(F)
Pressure
Air Dwpt altimeter
(in)
sea level
(mb)
Rmks
12:53 am PDT N 6.9 10.00 Fair -- 53.0 44.1 72% 51 NA 29.86 1011.1
11:53 pm PDT N 11.5 10.00 Fair -- 53.0 45.0 74% 49 NA 29.87 1011.5
10:53 pm PDT N 10.4 10.00 Fair -- 55.0 44.1 67% 52 NA 29.87 1011.3
9:53 pm PDT N 5.8 10.00 Fair -- 56.0 45.0 67% 55 NA 29.88 1011.7
8:53 pm PDT N 5.8 10.00 Fair -- 57.0 45.0 64% 56 NA 29.87 1011.5
7:53 pm PDT N 9.2 10.00 Fair -- 56.0 45.0 67% 54 NA 29.89 1012.0
6:53 pm PDT N 9.2 G 17.3 10.00 Fair -- 57.0 45.0 64% 55 NA 29.90 1012.6
5:53 pm PDT N 9.2 10.00 Fair -- 58.0 48.0 70% 56 NA 29.91 1012.8
4:53 pm PDT N 10.4 G 17.3 10.00 Mostly Cloudy -- 60.0 46.9 62% 58 NA 29.92 1013.1
3:53 pm PDT N 11.5 G 20.7 10.00 A Few Clouds -- 61.0 48.0 63% 59 NA 29.92 1013.1
2:53 pm PDT 6.9 G 18.4 10.00 Partly Cloudy -- 64.0 50.0 60% NA NA 29.94 1013.6
1:53 pm PDT N 11.5 G 17.3 10.00 Fair -- 62.0 51.1 67% 61 NA 29.94 1013.7
12:53 pm PDT N 8.1 10.00 Fair -- 62.0 51.1 67% 61 NA 29.95 1014.0
11:53 am PDT N 9.2 10.00 Fair -- 61.0 51.1 70% 60 NA 29.96 1014.4
10:53 am PDT N 6.9 10.00 Fair -- 61.0 51.1 70% 60 NA 29.96 1014.5
9:53 am PDT N 5.8 10.00 Fair -- 60.0 51.1 72% 60 NA 29.98 1015.2
8:53 am PDT 5.8 10.00 Fair -- 58.0 51.1 78% 57 NA 29.99 1015.4
7:53 am PDT N 9.2 10.00 Fair -- 56.0 50.0 81% 54 NA 29.99 1015.5
6:53 am PDT N 10.4 10.00 Fair -- 55.0 50.0 83% 52 NA 29.99 1015.3
5:53 am PDT N 9.2 10.00 Fair -- 54.0 48.0 80% 51 NA 29.98 1014.9
4:53 am PDT N 5.8 10.00 Fair -- 55.0 48.0 77% 54 NA 29.97 1014.5
3:53 am PDT N 6.9 10.00 Fair -- 56.0 46.9 72% 54 NA 29.96 1014.2
2:53 am PDT N 5.8 10.00 Fair -- 56.0 48.0 75% 55 NA 29.96 1014.3
1:53 am PDT N 8.1 10.00 Fair -- 57.0 48.0 72% 55 NA 29.96 1014.1

Regional Weather Observation


Whidbey Island Naval Air Station - Ault Field, WA (KNUW)

Mostly Cloudy
52.0 F

Burlington/Mount Vernon, Skagit Regional Airport, WA (KBVS)

Partly Cloudy
52.0 F

Everett Snohomish County, WA (KPAE)

Fair
53.0 F

Eastsound, Orcas Island Airport, WA (KORS)

NULL
63.0 F

Bellingham, Bellingham International Airport, WA (KBLI)

Fair
57.0 F

Boeing Field - King County International Airport, WA (KBFI)

Fair
59.0 F